TimeAEST,TemperatureF,Dew PointF,Humidity,Sea Level PressureIn,VisibilityMPH,Wind Direction,Wind SpeedMPH,Gust SpeedMPH,PrecipitationIn,Events,Conditions,WindDirDegrees,DateUTC
12:00 AM,70,60,63,30.01,,South,11.5,,,,Overcast,170,2013-07-03 14:00:00
12:00 AM,69.8,60.8,73,30.01,6.2,South,11.5,-,N/A,,Mostly Cloudy,170,2013-07-03 14:00:00
12:30 AM,69.8,60.8,73,30.01,6.2,SSE,10.4,-,N/A,,Scattered Clouds,160,2013-07-03 14:30:00
1:00 AM,70,61,65,30.01,,South,12.7,,,,,180,2013-07-03 15:00:00
1:00 AM,69.8,60.8,73,30.01,6.2,South,12.7,-,N/A,,Partly Cloudy,180,2013-07-03 15:00:00
1:30 AM,69.8,60.8,73,29.98,6.2,South,12.7,-,N/A,,Scattered Clouds,180,2013-07-03 15:30:00
2:00 AM,69.8,62.6,78,29.98,6.2,South,12.7,-,N/A,,Scattered Clouds,180,2013-07-03 16:00:00
2:30 AM,69.8,62.6,78,29.95,6.2,South,11.5,-,N/A,,Mostly Cloudy,190,2013-07-03 16:30:00
3:00 AM,70,62,70,29.96,,SSE,9.2,,,,Overcast,160,2013-07-03 17:00:00
3:00 AM,69.8,62.6,78,29.95,6.2,SSE,9.2,-,N/A,,Overcast,160,2013-07-03 17:00:00
3:30 AM,69.8,62.6,78,29.95,6.2,South,9.2,-,N/A,,Mostly Cloudy,170,2013-07-03 17:30:00
4:00 AM,68,63,78,29.97,,ESE,8.1,,,,,120,2013-07-03 18:00:00
4:00 AM,68.0,62.6,83,29.95,6.2,ESE,8.1,-,N/A,Rain,Light Rain Showers,120,2013-07-03 18:00:00
4:30 AM,69.8,64.4,83,29.95,6.2,SSE,10.4,-,N/A,Rain,Light Rain Showers,160,2013-07-03 18:30:00
4:50 AM,68.0,64.4,88,29.95,4.3,SSE,9.2,-,N/A,Rain,Light Rain Showers,160,2013-07-03 18:50:00
5:00 AM,68.0,66.2,94,29.95,5.0,South,10.4,-,N/A,Rain,Light Rain Showers,170,2013-07-03 19:00:00
5:30 AM,68.0,66.2,94,29.95,5.0,South,10.4,-,N/A,Rain,Light Rain Showers,170,2013-07-03 19:30:00
6:00 AM,67,65,93,29.97,9,South,10.4,,,Rain,Light Rain Showers,170,2013-07-03 20:00:00
6:00 AM,68.0,66.2,94,29.98,6.2,South,10.4,-,N/A,Rain,Light Rain Showers,170,2013-07-03 20:00:00
6:30 AM,68.0,64.4,88,29.98,6.2,South,12.7,-,N/A,Rain,Light Rain Showers,180,2013-07-03 20:30:00
7:00 AM,68,65,87,29.99,,South,10.4,,,,,170,2013-07-03 21:00:00
7:00 AM,68.0,64.4,88,29.98,6.2,South,10.4,-,N/A,Rain,Light Rain Showers,170,2013-07-03 21:00:00
7:30 AM,68.0,64.4,88,29.98,6.2,South,11.5,-,N/A,Rain,Light Rain Showers,170,2013-07-03 21:30:00
8:00 AM,68.0,66.2,94,29.98,6.2,South,10.4,-,N/A,Rain,Light Rain Showers,180,2013-07-03 22:00:00
8:30 AM,68.0,66.2,94,30.01,4.0,South,9.2,-,N/A,Rain,Light Rain Showers,170,2013-07-03 22:30:00
8:46 AM,68.0,66.2,94,30.01,3.7,SSE,10.4,-,N/A,Rain,Light Rain Showers,160,2013-07-03 22:46:00
9:00 AM,68,66,92,30.02,4,South,9.2,,,Rain,Light Rain Showers,170,2013-07-03 23:00:00
9:00 AM,68.0,66.2,94,30.01,3.7,South,9.2,-,N/A,Rain,Light Rain Showers,170,2013-07-03 23:00:00
9:25 AM,68.0,66.2,94,30.01,2.5,SSE,10.4,-,N/A,Rain,Light Rain Showers,160,2013-07-03 23:25:00
9:30 AM,68.0,66.2,94,30.01,2.5,SSE,9.2,-,N/A,Rain,Light Rain Showers,160,2013-07-03 23:30:00
10:00 AM,70,67,88,30.02,,South,10.4,,,,,180,2013-07-04 00:00:00
10:00 AM,69.8,68.0,94,30.01,6.2,South,10.4,-,N/A,,Mostly Cloudy,180,2013-07-04 00:00:00
10:30 AM,71.6,68.0,88,30.01,6.2,South,10.4,-,N/A,,Mostly Cloudy,180,2013-07-04 00:30:00
10:46 AM,71.6,68.0,88,30.01,3.7,South,11.5,-,N/A,Rain,Light Rain Showers,170,2013-07-04 00:46:00
11:00 AM,69.8,68.0,94,30.01,6.2,South,11.5,-,N/A,Rain,Light Rain Showers,180,2013-07-04 01:00:00
11:30 AM,73.4,68.0,83,29.98,6.2,South,10.4,-,N/A,,Mostly Cloudy,180,2013-07-04 01:30:00
12:00 PM,72,68,82,29.98,11,South,10.4,,,,Partly Cloudy,180,2013-07-04 02:00:00
12:00 PM,73.4,68.0,83,29.98,6.2,South,10.4,-,N/A,,Mostly Cloudy,180,2013-07-04 02:00:00
12:30 PM,75.2,68.0,78,29.95,6.2,South,13.8,-,N/A,,Mostly Cloudy,170,2013-07-04 02:30:00
1:00 PM,74,67,72,29.96,,South,10.4,,,,,170,2013-07-04 03:00:00
1:00 PM,73.4,66.2,78,29.95,6.2,South,10.4,-,N/A,,Mostly Cloudy,170,2013-07-04 03:00:00
1:30 PM,73.4,66.2,78,29.92,6.2,South,10.4,-,N/A,,Mostly Cloudy,180,2013-07-04 03:30:00
2:00 PM,73.4,66.2,78,29.92,6.2,SSE,12.7,-,N/A,,Mostly Cloudy,160,2013-07-04 04:00:00
2:30 PM,75.2,66.2,73,29.92,6.2,South,9.2,-,N/A,,Mostly Cloudy,170,2013-07-04 04:30:00
3:00 PM,76,66,64,29.91,16,SSE,11.5,,,,Partly Cloudy,160,2013-07-04 05:00:00
3:30 PM,75.2,66.2,73,29.92,6.2,SE,16.1,-,N/A,,Mostly Cloudy,140,2013-07-04 05:30:00
4:00 PM,75,65,64,29.93,,SSE,16.1,,,,,150,2013-07-04 06:00:00
4:00 PM,75.2,66.2,73,29.92,6.2,SSE,16.1,-,N/A,,Mostly Cloudy,150,2013-07-04 06:00:00
4:30 PM,73.4,66.2,78,29.92,6.2,SE,15.0,-,N/A,,Mostly Cloudy,140,2013-07-04 06:30:00
5:00 PM,73.4,66.2,78,29.92,6.2,South,9.2,-,N/A,,Mostly Cloudy,170,2013-07-04 07:00:00
6:00 PM,72,65,74,29.95,,South,9.2,,,,Overcast,170,2013-07-04 08:00:00
6:00 PM,71.6,66.2,83,29.95,6.2,South,9.2,-,N/A,,Mostly Cloudy,170,2013-07-04 08:00:00
6:30 PM,71.6,66.2,83,29.95,6.2,South,8.1,-,N/A,,Overcast,180,2013-07-04 08:30:00
7:00 PM,71,65,76,29.97,,South,9.2,,,,,180,2013-07-04 09:00:00
7:00 PM,71.6,64.4,78,29.95,6.2,South,9.2,-,N/A,,Mostly Cloudy,180,2013-07-04 09:00:00
7:30 PM,69.8,64.4,83,29.95,6.2,South,10.4,-,N/A,,Mostly Cloudy,180,2013-07-04 09:30:00
8:00 PM,69.8,64.4,83,29.98,6.2,South,9.2,-,N/A,,Scattered Clouds,180,2013-07-04 10:00:00
8:30 PM,69.8,66.2,88,29.98,6.2,South,10.4,-,N/A,,Scattered Clouds,170,2013-07-04 10:30:00
9:00 PM,70,65,79,30.00,,South,9.2,,,,Overcast,170,2013-07-04 11:00:00
9:00 PM,69.8,64.4,83,29.98,6.2,South,9.2,-,N/A,,Mostly Cloudy,170,2013-07-04 11:00:00
9:30 PM,69.8,64.4,83,30.01,6.2,South,8.1,-,N/A,,Mostly Cloudy,170,2013-07-04 11:30:00
10:00 PM,69,65,82,30.01,,South,8.1,,,,,180,2013-07-04 12:00:00
10:00 PM,69.8,64.4,83,30.01,6.2,South,8.1,-,N/A,,Mostly Cloudy,180,2013-07-04 12:00:00
10:30 PM,69.8,64.4,83,29.98,6.2,South,9.2,-,N/A,,Partly Cloudy,180,2013-07-04 12:30:00
11:00 PM,68.0,64.4,88,29.98,6.2,South,9.2,-,N/A,,Partly Cloudy,170,2013-07-04 13:00:00
11:30 PM,69.8,64.4,83,29.98,6.2,SSE,8.1,-,N/A,,Mostly Cloudy,160,2013-07-04 13:30:00